www.pogodaiklimat.ru

Погода и климат >> Архив погоды >> Финляндия >> Раахе Лапалуто


ПОГОДА в Раахе Лапалуто

  • Прогноз погоды в Раахе Лапалуто
  • Монитор погоды в Раахе Лапалуто

АРХИВ ПОГОДЫ в Раахе Лапалуто

Время (UTC), дата Ветер
(напр.,м/с)
 
Видим.   Явления Облачность Т
(С)
Тd
(С)
f
(%)
Тe
(С)
Тes
(С)
Комфортность P
(гПа)
Po
(гПа)
Тmin
(С)
Tmax
(С)
R
(мм)
R24
(мм)
S
(см)
16 9.06 ЮЗ 14 35 км н/о +13.7 +9.9 78 +10 +10 1011.8 1011.2
17 9.06 ЮЗ 15 40 км н/о +14.2 +10.1 76 +11 +11 1011.8 1011.2
18 9.06 ЮЗ 12-14
{17}
45 км н/о +13.7 +9.8 77 +10 +10 1011.7 1011.1 +13.4 +22.3
19 9.06 Ю 11-14
{16}
45 км н/о +13.4 +9.8 79 +10 +10 1011.2 1010.6
20 9.06 ЮЗ 12 50 км н/о +13.0 +9.7 80 +9 +9 1011.0 1010.4
21 9.06 ЮЗ 13-15
{16}
50 км н/о +12.9 +9.4 79 +9 +9 1010.7 1010.1
22 9.06 Ю 10-12
{15}
50 км н/о +13.1 +10.6 85 +10 +10 1010.7 1010.1
23 9.06 Ю 11-14
{15}
50 км н/о +14.5 +10.5 77 +12 +12 1010.4 1009.8
00 10.06 Ю 11-14
{14}
50 км н/о +14.2 +10.5 78 +11 +11 1009.8 1009.2
01 10.06 Ю 11 50 км н/о +13.9 +10.3 79 +11 +11 1009.3 1008.7
02 10.06 Ю 10 50 км н/о +13.6 +10.7 83 +11 +11 1009.2 1008.6
03 10.06 Ю 13-16
{17}
50 км н/о +14.0 +10.8 81 +11 +11 1008.7 1008.1
04 10.06 Ю 13-17
{17}
45 км н/о +13.9 +11.4 85 +11 +11 1008.9 1008.3
05 10.06 Ю 14 40 км н/о +14.0 +11.4 84 +11 +11 1008.8 1008.2
06 10.06 ЮЗ 13-16
{17}
35 км н/о +13.1 +11.2 88 +9 +9 1009.4 1008.8 +12.4 +14.6
07 10.06 ЮЗ 15-18
{18}
35 км н/о +13.4 +11.2 87 +10 +10 1009.3 1008.7
08 10.06 Ю 16 40 км н/о +13.4 +11.0 85 +9 +9 1009.4 1008.8
09 10.06 ЮЗ 15-18
{18}
35 км н/о +13.5 +10.9 84 +10 +10 1010.1 1009.5
10 10.06 ЮЗ 14 35 км н/о +13.4 +10.6 83 +10 +10 1010.3 1009.7
11 10.06 ЮЗ 14 30 км н/о +13.4 +11.0 85 +10 +10 1010.6 1010.0
12 10.06 ЮЗ 16-19
{19}
30 км н/о +13.8 +10.6 81 +10 +10 1010.8 1010.2
13 10.06 ЮЗ 15 35 км н/о +13.1 +10.8 86 +9 +9 1010.8 1010.2
14 10.06 ЮЗ 13 30 км н/о +12.0 +10.0 88 +8 +8 1011.3 1010.7
15 10.06 ЮЗ 12-14
{14}
30 км н/о +11.4 +10.0 91 +7 +7 1011.5 1010.9
16 10.06 ЮЗ 10-12
{15}
24 км н/о +10.1 +9.0 93 +6 +6 1012.1 1011.5
17 10.06 З 9 30 км н/о +9.6 +8.1 90 +5 +5 1012.6 1012.0
18 10.06 ЮЗ 8-9
{10}
40 км н/о +9.8 +7.9 88 +6 +6 1013.3 1012.7 +9.6 +14.1
19 10.06 З 5 40 км н/о +9.4 +7.6 89 +6 +6 1014.3 1013.7
20 10.06 СЗ 1 45 км н/о +9.9 +7.3 84 +9 +9 1015.3 1014.7
21 10.06 С 5-9
{9}
50 км н/о +9.9 +7.7 86 +7 +7 1016.7 1016.1
22 10.06 С 8-10
{11}
50 км в посл. час дождь н/о +9.3 +6.4 82 +5 +5 1017.6 1017.0
23 10.06 С 9 50 км н/о +9.4 +4.6 72 +5 +5 1018.8 1018.2
00 11.06 С 7-9
{10}
50 км {ливн. осадки, дождь} н/о +8.5 +5.2 80 +4 +4 1019.6 1018.9
01 11.06 С 10-13
{13}
50 км н/о +8.6 +5.2 79 +4 +4 1020.2 1019.5
02 11.06 С 12-13
{14}
50 км н/о +7.6 +2.8 72 +2 +2 1021.2 1020.6
03 11.06 С 10-12
{13}
50 км н/о +7.1 +3.2 76 +2 +2 1022.4 1021.8
04 11.06 С 9 50 км н/о +6.8 +3.1 77 +1 +1 1023.0 1022.4
05 11.06 С 9-10
{12}
45 км н/о +6.8 +2.1 72 +2 +2 1023.8 1023.2
06 11.06 С 5-7
{11}
50 км н/о +6.7 +1.9 71 +3 +3 1025.4 1024.8 +6.3 +10.6
07 11.06 С 7 45 км н/о +6.4 +1.5 71 +2 +2 1026.2 1025.6
08 11.06 С 8 45 км н/о +7.0 +1.9 70 +2 +2 1026.6 1025.9
09 11.06 С 8-10
{10}
50 км н/о +7.0 +1.5 68 +2 +2 1027.1 1026.5
10 11.06 С 8-11
{11}
45 км н/о +7.0 +1.2 67 +2 +2 1027.5 1026.9
11 11.06 С 8 40 км н/о +7.9 +1.9 66 +3 +3 1028.1 1027.5
12 11.06 С 9-11
{11}
45 км н/о +8.8 +1.6 61 +4 +4 1028.1 1027.5
13 11.06 СЗ 8 50 км н/о +8.1 +4.1 76 +4 +4 1028.3 1027.7
14 11.06 СЗ 5-10
{10}
45 км н/о +8.6 +2.6 66 +5 +5 1028.7 1028.1
15 11.06 С 9-11
{12}
45 км н/о +9.2 +1.0 56 +5 +5 1029.1 1028.4
16 11.06 С 8 45 км н/о +8.7 +1.6 61 +5 +5 1029.3 1028.7
17 11.06 С 7 50 км н/о +8.5 +1.0 59 +5 +5 1029.3 1028.7
18 11.06 С 7-10
{11}
50 км н/о +8.4 +2.8 68 +4 +4 1029.6 1028.9 +6.2 +9.3
19 11.06 С 10-11
{12}
50 км н/о +8.6 +1.1 59 +4 +4 1029.6 1028.9
20 11.06 С 9 50 км н/о +8.5 +0.6 58 +4 +4 1029.9 1029.3
21 11.06 С 8-10
{12}
50 км н/о +8.1 +0.2 57 +4 +4 1030.2 1029.5
22 11.06 С 5-8
{9}
50 км н/о +8.0 +0.8 60 +5 +5 1030.6 1030.0
23 11.06 СВ 5-6
{8}
50 км н/о +6.2 +0.3 66 +2 +2 1031.0 1030.4
00 12.06 СВ 4-4
{5}
50 км н/о +4.7 -0.2 71 +1 +1 1031.2 1030.6
01 12.06 СВ 4 50 км н/о +4.4 -0.4 71 0 0 1031.3 1030.7
02 12.06 СВ 4 50 км н/о +4.9 -0.1 70 +1 +1 1031.5 1030.8
03 12.06 В 2-2
{4}
50 км н/о +7.8 +0.6 60 +6 +6 1031.7 1031.1
04 12.06 С 4 50 км н/о +8.6 +4.3 74 +6 +6 1031.8 1031.2
05 12.06 С 4 45 км н/о +9.4 +4.1 69 +7 +7 1032.0 1031.3
06 12.06 С 4-5
{7}
50 км н/о +9.2 +3.1 66 +7 +7 1032.3 1031.6 +3.9 +9.8
07 12.06 С 5 45 км н/о +10.0 +4.2 67 +7 +7 1032.2 1031.6
08 12.06 С 5 45 км н/о +10.3 +0.6 51 +8 +8 1032.1 1031.5
09 12.06 СЗ 7-8
{8}
50 км н/о +10.1 +2.7 60 +7 +7 1032.1 1031.4
10 12.06 С 5 50 км н/о +10.9 +1.6 53 +8 +8 1031.7 1031.1
11 12.06 С 7 45 км н/о +10.7 +1.5 53 +8 +8 1031.4 1030.8
12 12.06 С 6-9
{10}
45 км н/о +11.1 +1.0 50 +8 +8 1031.2 1030.6
13 12.06 С 8 40 км н/о +10.6 -0.2 47 +7 +7 1030.7 1030.0
14 12.06 С 9 45 км н/о +10.1 +0.7 52 +6 +6 1030.2 1029.6
15 12.06 С 9-10
{11}
50 км н/о +11.1 +2.5 55 +8 +8 1029.5 1028.8
16 12.06 С 8-9
{11}
45 км н/о +11.2 +4.2 62 +8 +8 1029.1 1028.5
17 12.06 С 8-9
{9}
50 км н/о +11.9 +6.3 69 +9 +9 1028.6 1028.0
18 12.06 СВ 4-6
{9}
50 км н/о +13.2 +3.7 52 +12 +12 1028.3 1027.7 +9.2 +13.2
19 12.06 СВ 3 50 км н/о +12.6 +3.1 52 +11 +11 1028.3 1027.7
20 12.06 В 3-5
{6}
50 км н/о +11.1 +3.3 59 +10 +10 1028.3 1027.7
21 12.06 В 4-5
{5}
50 км н/о +9.4 +4.1 69 +7 +7 1028.4 1027.8
22 12.06 В 5 50 км н/о +9.2 +3.5 67 +6 +6 1028.2 1027.5
23 12.06 В 6 50 км н/о +8.7 +2.5 65 +5 +5 1028.0 1027.4
00 13.06 ЮВ 6-7
{8}
40 км н/о +9.2 +1.8 60 +6 +6 1028.0 1027.3
01 13.06 ЮВ 7-7
{9}
50 км н/о +9.1 +1.9 61 +5 +5 1027.9 1027.3
02 13.06 ЮВ 5-8
{8}
40 км н/о +9.7 +2.4 60 +7 +7 1027.6 1026.9
03 13.06 ЮВ 6-8
{9}
45 км н/о +10.5 +2.5 58 +8 +8 1027.4 1026.8
04 13.06 ЮВ 5 35 км н/о +11.6 +2.8 55 +9 +9 1027.1 1026.5
05 13.06 ЮВ 5-9
{9}
24 км н/о +13.9 +2.8 47 +12 +12 1026.7 1026.1
06 13.06 ЮВ 4-7
{9}
28 км н/о +14.8 +1.9 42 +14 +14 1026.3 1025.7 +8.6 +14.8
07 13.06 ЮВ 5-8
{8}
40 км н/о +15.1 +1.7 40 +14 +14 1026.4 1025.8
08 13.06 ЮВ 4-8
{8}
40 км н/о +16.8 +2.7 39 +16 +16 1025.8 1025.2
09 13.06 ЮВ 4-7
{9}
40 км н/о +17.2 +2.9 38 +17 +17 1025.4 1024.8
10 13.06 ЮВ 5 35 км н/о +18.1 +3.4 38 +18 +18 1024.8 1024.2
11 13.06 ЮВ 6 40 км н/о +18.3 +2.0 34 +18 +18 1024.3 1023.7
12 13.06 ЮВ 5-9
{10}
40 км н/о +18.4 +2.4 34 +18 +18 1023.8 1023.2
13 13.06 ЮВ 5 30 км н/о +17.9 +2.8 36 +18 +18 1023.6 1023.0
14 13.06 ЮВ 5-8
{8}
50 км н/о +18.0 +2.2 35 +18 +18 1023.0 1022.4
15 13.06 ЮВ 5-7
{7}
40 км н/о +17.2 +3.5 40 +17 +17 1022.2 1021.6
16 13.06 ЮВ 5 50 км н/о +16.9 +3.0 39 +16 +16 1022.0 1021.4
17 13.06 В 3-5
{6}
50 км н/о +16.9 +2.6 38 +17 +17 1021.6 1021.0
18 13.06 В 4-5
{7}
50 км н/о +16.4 +2.7 40 +16 +16 1021.7 1021.0 +13.9 +18.7
19 13.06 ЮВ 3 50 км н/о +15.9 +3.5 43 +16 +16 1021.7 1021.1
20 13.06 В 2 40 км н/о +14.9 +4.5 50 +15 +15 1021.7 1021.1
21 13.06 В 4-5
{5}
50 км н/о +14.1 +4.3 52 +13 +13 1021.8 1021.2
22 13.06 ЮВ 4 30 км н/о +14.1 +3.8 50 +13 +13 1021.6 1021.0
23 13.06 В 3-4
{6}
50 км н/о +12.9 +4.1 55 +12 +12 1020.7 1020.1
00 14.06 ЮВ 4-5
{5}
45 км н/о +12.3 +4.2 58 +11 +11 1020.7 1020.0
01 14.06 СВ 3 50 км н/о +11.8 +5.2 64 +10 +10 1020.7 1020.1
02 14.06 В 2 50 км н/о +11.2 +5.0 66 +10 +10 1020.7 1020.1
03 14.06 В 3-4
{5}
45 км н/о +11.8 +5.3 64 +10 +10 1020.2 1019.6
04 14.06 В 3 50 км н/о +12.7 +5.0 59 +12 +12 1019.9 1019.3
05 14.06 В 4-8
{8}
45 км н/о +14.2 +3.9 50 +13 +13 1019.7 1019.1
06 14.06 В 4-6
{7}
40 км н/о +15.7 +3.9 45 +15 +15 1019.2 1018.6 +11.1 +16.4
07 14.06 В 3-5
{6}
35 км н/о +17.3 +3.5 40 +17 +17 1019.1 1018.5
08 14.06 В 4 45 км н/о +18.3 +1.8 33 +18 +18 1019.0 1018.4
09 14.06 В 3-5
{6}
45 км н/о +19.5 +2.6 33 +20 +20 1018.6 1018.0
10 14.06 С 7 40 км н/о +15.0 +9.8 71 +13 +13 1018.2 1017.6
11 14.06 С 8 40 км н/о +15.9 +8.6 62 +14 +14 1018.0 1017.4
12 14.06 С 9-10
{11}
45 км н/о +15.2 +8.5 64 +13 +13 1017.6 1017.0
13 14.06 С 8-10
{10}
40 км н/о +15.0 +8.8 66 +13 +13 1017.3 1016.7
14 14.06 С 8 45 км н/о +16.5 +6.8 53 +15 +15 1016.6 1016.0
15 14.06 С 7-9
{10}
50 км н/о +16.7 +8.4 58 +16 +16 1015.9 1015.3
16 14.06 С 7 45 км н/о +15.7 +7.4 58 +14 +14 1015.5 1014.9
17 14.06 С 6 45 км н/о +16.6 +7.7 56 +16 +16 1015.1 1014.5
18 14.06 С 5-7
{8}
50 км н/о +17.3 +7.5 53 +17 +17 1014.3 1013.7 +14.8 +20.0
19 14.06 С 5 50 км н/о +16.5 +6.3 51 +16 +16 1014.2 1013.5
20 14.06 С 4 50 км н/о +14.6 +10.1 74 +13 +13 1013.9 1013.3
21 14.06 СВ 3-3
{4}
50 км н/о +13.5 +11.3 87 +12 +12 1013.8 1013.2
22 14.06 ЮЗ 2-2
{3}
50 км н/о +13.5 +11.2 86 +13 +13 1014.1 1013.5
23 14.06 С 2 50 км н/о +12.3 +10.6 89 +11 +11 1014.2 1013.6
00 15.06 СЗ 4-5
{5}
45 км н/о +12.5 +9.4 81 +11 +11 1014.1 1013.5
01 15.06 З 4 50 км н/о +11.7 +8.5 81 +10 +10 1014.1 1013.5
02 15.06 С 2 50 км н/о +12.0 +7.5 74 +11 +11 1014.0 1013.4
03 15.06 С 4-4
{5}
50 км н/о +13.2 +7.7 69 +12 +12 1014.2 1013.6
04 15.06 С 3 50 км н/о +13.6 +7.5 67 +13 +13 1014.2 1013.6
05 15.06 З 2 45 км н/о +13.5 +9.2 75 +13 +13 1014.4 1013.8
06 15.06 ЮЗ 4-5
{6}
45 км н/о +12.1 +8.8 80 +10 +10 1015.0 1014.4 +11.4 +17.3
07 15.06 ЮЗ 4 40 км н/о +12.8 +9.5 80 +11 +11 1015.4 1014.8
08 15.06 З 3 40 км н/о +12.6 +9.1 79 +11 +11 1015.8 1015.2
09 15.06 ЮЗ 3-4
{5}
40 км н/о +12.7 +9.3 80 +11 +11 1016.1 1015.5
10 15.06 ЮЗ 3-4
{4}
40 км н/о +13.3 +9.6 78 +12 +12 1016.1 1015.5
11 15.06 ЮЗ 4 35 км н/о +13.5 +10.3 81 +12 +12 1016.2 1015.6
12 15.06 ЮЗ 3-4
{4}
35 км н/о +14.0 +11.1 83 +13 +13 1016.4 1015.8
13 15.06 ЮЗ 3 40 км н/о +13.4 +10.7 84 +12 +12 1016.4 1015.8
14 15.06 ЮЗ 2-3
{3}
40 км н/о +14.5 +11.3 81 +14 +14 1016.2 1015.6
15 15.06 З 3-3
{3}
40 км н/о +14.6 +11.2 80 +14 +14 1016.3 1015.7
16 15.06 ЮЗ 4 45 км н/о +14.9 +11.2 79 +14 +14 1016.2 1015.5
17 15.06 ЮЗ 5 45 км н/о +14.1 +10.2 77 +12 +12 1015.8 1015.2
18 15.06 ЮЗ 4-5
{6}
45 км н/о +13.8 +10.4 80 +12 +12 1015.6 1015.0 +11.6 +15.4
19 15.06 ЮЗ 5 45 км н/о +13.0 +10.2 83 +11 +11 1015.4 1014.8
20 15.06 Ю 6 900 м туман н/о +11.0 +10.8 99 +8 +8 1015.3 1014.7
21 15.06 ЮЗ 6-8
{9}
50 км в посл. час туман н/о +11.7 +10.3 91 +9 +9 1015.2 1014.5
22 15.06 ЮЗ 5 50 км н/о +11.9 +9.9 88 +9 +9 1015.0 1014.4
23 15.06 Ю 6-8
{8}
50 км н/о +11.8 +10.4 91 +9 +9 1015.0 1014.4
00 16.06 Ю 7-8
{9}
30 км {туман, метель} н/о +11.9 +10.1 89 +9 +9 1014.6 1014.0
01 16.06 Ю 8 50 км н/о +12.0 +10.0 88 +9 +9 1014.1 1013.5
02 16.06 Ю 7 50 км н/о +12.0 +10.2 89 +9 +9 1013.7 1013.1
03 16.06 Ю 8-10
{10}
50 км н/о +12.7 +10.4 86 +10 +10 1013.1 1012.5
04 16.06 Ю 9 45 км н/о +12.9 +10.5 85 +10 +10 1013.2 1012.6
05 16.06 Ю 9-11
{12}
45 км н/о +13.4 +10.3 81 +10 +10 1013.1 1012.5
06 16.06 Ю 9-10
{11}
40 км н/о +13.7 +10.5 81 +11 +11 1013.6 1013.0 +10.8 +13.8
07 16.06 Ю 12 45 км н/о +13.9 +10.5 80 +11 +11 1013.2 1012.6
08 16.06 Ю 10 45 км н/о +13.9 +10.2 78 +11 +11 1013.2 1012.6
09 16.06 Ю 9-11
{12}
50 км н/о +14.3 +10.5 78 +12 +12 1013.3 1012.7
10 16.06 ЮЗ 9 35 км н/о +13.5 +10.5 82 +11 +11 1013.2 1012.6
11 16.06 ЮЗ 8 40 км н/о +13.4 +10.5 83 +11 +11 1013.3 1012.7
12 16.06 ЮЗ 9-11
{11}
50 км н/о +13.7 +10.8 83 +11 +11 1013.1 1012.5
13 16.06 ЮЗ 8-9
{11}
40 км н/о +13.9 +10.9 82 +11 +11 1012.9 1012.3
14 16.06 Ю 7 40 км н/о +14.2 +10.4 78 +12 +12 1012.4 1011.8

 

Местоположение метеостанции Раахе Лапалуто (Финляндия): широта 64.67 долгота 24.41 высота над уровнем моря 2 м.

В архиве по умолчанию представлена погода в Раахе Лапалуто за последнюю неделю. Архивные данные за месяц целиком и за предыдущие месяцы, начиная с января 2011 года, Вы можете получить, выбрав интересующий диапазон дат из раскрывающегося списка и нажав кнопку "Ввод!".


*Определитесь, кто Вы:
робот инопланетянин человек

Внимание! Время в таблицах - всемирное. Для получения местного времени необходимо прибавить поправку, которая равна 1 ч.

Смотрите также архив погоды в соседних городах и на ближайших метеорологических станциях:

Погода на Маяке Nahkiainen (Финляндия) (25 км)
Погода в Ревонлахти (Финляндия) (32 км)
Погода на Гуфускаларе (Исландия) (34 км)
Погода на Маяке Marjaniemi (Финляндия) (42 км)
Погода в Хайлуото (Финляндия) (42 км)
Погода в Оулунсало Пеллонпаа (Финляндия) (54 км)
Погода на Острове Улкокалла (Финляндия) (60 км)
Погода в Оулу (Финляндия) (60 км)
Погода в Юливиеске (Финляндия) (71 км)
Погода в Мустиккамаки (Финляндия) (76 км)

Пояснения к столбцам:

Ветер - указаны скорость ветра в м/с - средняя за 10 мин, порывы в срок и между сроками (в фигурных скобках) и направление, откуда дует ветер: С - северный, СВ - северо-восточный, В - восточный, ЮВ - юго-восточный, Ю - южный, ЮЗ - юго-западный, З - западный, СЗ - северо-западный.
Видимость - горизонтальная дальность видимости в метрах или километрах. При видимости от 1 до 10 км при отсутствии осадков обычно наблюдается дымка, при ухудшении видимости до 1 км и менее - туман. В сухую погоду видимость может ухудшаться дымом, пылью или мглою.
Явления - указаны атмосферные явления, наблюдавшиеся в срок или в последний час перед сроком; фигурными скобками обозначены явления, наблюдавшиеся между сроками (за 1-3 часа до срока); квадратными скобками обозначены град или гололедные отложения с указанием их диаметра в мм.
Облачность - указаны через наклонную черту общая и нижняя облачность в баллах и высота нижней границы облаков в метрах; квадратными скобками обозначены формы облаков: Ci - перистые, Cs - перисто-слоистые, Cc - перисто-кучевые, Ac - высококучевые, As - высокослоистые, Sc - слоисто-кучевые, Ns - слоисто-дождевые, Cu - кучевые, Cb - кучево-дождевые. Подробнее классификацию облаков см. в Атласе облаков (PDF).
T - Температура воздуха - температура, измеренная на высоте 2 м над землей.
Td - Температура точки росы - температура, при понижении до которой содержащийся в воздухе водяной пар достигнет насыщения.
f - Относительная влажность воздуха - влажноcть воздуха, измеренная на высоте 2 м над землей.
Te - Эффективная температура - температура, которую ощущает одетый по сезону человек в тени. Характеристика душности погоды. При расчете учитывается влияние влажности воздуха и скорости ветра на теплоощущения человека.
Tes - Эффективная температура на солнце - температура, которую ощущает человек, с поправкой на солнечный нагрев. Характеристика знойности погоды. Зависит от высоты солнца над горизонтом, облачности и скорости ветра. Ночью, в пасмурную погоду, а также при ветре 12 м/с и более поправка равна нулю.
P - Атмосферное давление - приведенное к уровню моря атмосферное давление.
Po - Атмосферное давление - измеренное на уровне метеостанции атмосферное давление.
Tmin - Минимальная температура - минимум температуры воздуха на высоте 2 м над землей.
Tmax - Максимальная температура - максимум температуры воздуха на высоте 2 м над землей.
R - Количество осадков - Количество выпавших осадков за период времени, мм. При наведении курсора мыши на число - период времени, за который выпало указанное количество осадков.
R24 - Количество осадков - Количество выпавших осадков за 24 часа, мм.
S - Снежный покров - Высота снежного покрова, см. При наведении курсора мыши на число - состояние снежного покрова и степень покрытия местности в баллах.